Regional Weather Roundup
Issued by NWS

Home | Current Version | Previous Version | Graphics & Text | Print | Product List | Glossary On
Versions: 1 2 3 4 5 6 7 8 9 10 11 12 13 14 15 16 17 18 19 20 21 22 23 24 25 26 27 28 29 30 31 32 33 34 35 36 37 38 39 40 41 42 43 44 45 46 47 48 49 50
000
ASUS43 KIND 100709
RWRIN

WEATHER ROUNDUP FOR INDIANA
NATIONAL WEATHER SERVICE INDIANAPOLIS IN
200 AM EST SAT DEC 10 2016

NOTE: "FAIR" INDICATES FEW OR NO CLOUDS BELOW 12,000 FEET WITH NO
SIGNIFICANT WEATHER AND/OR OBSTRUCTIONS TO VISIBILITY.

* - STATION DOES NOT REPORT WEATHER SUCH AS PRECIPITATION OR FOG.

+ - STATION NOT QUALITY CONTROLLED BY THE NATIONAL WEATHER SERVICE.
    USE DATA WITH CAUTION...ESPECIALLY DEWPOINT AND RELATIVE
    HUMIDITY OBSERVATIONS.

INZ001>003-010>013-019-020-100800-
NORTHWEST INDIANA

CITY           SKY/WX    TMP DP  RH WIND       PRES   REMARKS
GARY /AIRPORT/ PTCLDY    22  14  72 W8        30.52S WCI  13
KNOX *+        PTCLDY    19   0  42 W7        30.51R WCI  10
LA PORTE +     PTCLDY    18  12  78 W8        30.50R WCI   7
MICHIGAN CITY+ CLOUDY    21  14  73 SW9       30.50S WCI  11
MONTICELLO +   CLOUDY    22  11  61 SW3       30.52R
RENSSELAER +     N/A     23  19  86 CALM      30.52S
VALPARAISO     PTCLDY    19  12  74 W7        30.50S WCI  10

$$

LMZ046-743>745-100800-
SOUTHERN LAKE MICHIGAN

STATION/POSITION TIME  TEMP    WIND        PRES    WAVE
                       AIR SEA DIR/SP/G            HT
                 (UTC) (F)     (DEG/KT/KT) (MB)    (FT)

$$

INZ004-005-014>016-021>024-100800-
NORTH CENTRAL INDIANA

CITY           SKY/WX    TMP DP  RH WIND       PRES   REMARKS
GOSHEN         CLOUDY    20  11  68 W9        30.47S WCI   9
LOGANSPORT +   CLOUDY    23  12  63 W6        30.52S WCI  16
PERU/GRISSOM   CLOUDY    22  12  66 W8        30.49R WCI  12
ROCHESTER +    CLEAR     23  18  80 W7        30.50S WCI  15
SOUTH BEND     CLOUDY    19  13  77 SW9       30.47S WCI   8
WARSAW +       CLEAR     19  10  68 W6        30.48R WCI  11

$$

INZ006>009-017-018-025>027-100800-
NORTHEAST INDIANA

CITY           SKY/WX    TMP DP  RH WIND       PRES   REMARKS
ANGOLA *+      CLOUDY    19  16  86 W7        30.43S WCI  10
AUBURN +       MOCLDY    21  14  73 W7        30.47S WCI  13
FORT WAYNE     MOCLDY    19  12  74 W10       30.49S WCI   7
HUNTINGTON +   CLEAR     19  12  75 W6        30.49S WCI  10
KENDALLVILLE + FLURRIES  20  14  76 W13       30.45S WCI   8

$$

INZ028-029-035-036-043>045-051>053-100800-
WEST CENTRAL INDIANA

CITY           SKY/WX    TMP DP  RH WIND       PRES   REMARKS
CRAWFORDSVL +  MOCLDY    19  18  93 SW6       30.53R WCI  11
GREENCASTLE +  CLOUDY    21  19  93 CALM      30.54S
LAFAYETTE      CLOUDY    23  15  71 W6        30.53S WCI  16
TERRE HAUTE    CLOUDY    24  14  65 NW5       30.56S WCI  18

$$

INZ030>032-037>040-046>048-054>057-064-065-100800-
CENTRAL INDIANA

CITY           SKY/WX    TMP DP  RH WIND       PRES   REMARKS
CP ATTERBURY + CLOUDY    25  19  80 SW3       30.55S
FISHERS *+     CLOUDY    23  18  80 W3        30.52S
FRANKFORT +    CLOUDY    26  19  74 W7        30.53R WCI  18
GREENWOOD *+   CLOUDY    22  18  83 SW3       30.53S
INDIANAPOLIS   CLOUDY    22  17  81 W8        30.52S WCI  12
-EAGLE CREEK   CLOUDY    23  16  74 W7        30.52R WCI  15
KOKOMO +       CLOUDY    21  14  74 W7        30.52R WCI  12
MARION +       CLEAR     19  13  77 W7        30.51S WCI  10
MT COMFORT *+  CLOUDY    21  16  79 SW6       30.52R WCI  14
SHELBYVILLE    CLOUDY    23  17  78 W6        30.53R WCI  16
ZIONSVILLE +   CLOUDY    22  14  70 W3        30.52R

$$

INZ033-034-041-042-049-050-058-059-100800-
EAST CENTRAL INDIANA

CITY           SKY/WX    TMP DP  RH WIND       PRES   REMARKS
MUNCIE         CLOUDY    24  17  74 W8        30.50R WCI  15

$$

INZ060-061-067>069-081>083-085>088-100800-
SOUTHWEST INDIANA

CITY           SKY/WX    TMP DP  RH WIND       PRES   REMARKS
EVANSVILLE     MOCLDY    20  15  81 CALM      30.60S
HUNTINGBURG *+ CLOUDY    18  15  88 CALM      30.58S
WASHINGTON +   CLOUDY    24  19  81 SW3       30.58S

$$

INZ062-063-066-070>080-084-089>092-100800-
SOUTH CENTRAL AND SOUTHEAST INDIANA

CITY           SKY/WX    TMP DP  RH WIND       PRES   REMARKS
BLOOMINGTON    CLOUDY    22  17  81 CALM      30.54S
MADISON *+     PTCLDY    23  18  80 SW3       30.56S
NORTH VERNON + PTCLDY    23  23 100 SW6       30.55F WCI  16
SEYMOUR +      CLOUDY    21  18  86 CALM      30.56F

$$





USA.gov is the U.S. government's official web portal to all federal, state and local government web resources and services.